Regional Weather Roundup
Issued by NWS

Home | Current Version | Previous Version | Text Only | Print | Product List | Glossary Off
Versions: 1 2 3 4 5 6 7 8 9 10 11 12 13 14 15 16 17 18 19 20 21 22 23 24 25 26 27 28 29 30 31 32 33 34 35 36 37 38 39 40 41 42 43 44 45 46 47 48 49 50

000
ASUS43 KFSD 212002
RWRSD

WEATHER ROUNDUP FOR SOUTH DAKOTA
NATIONAL WEATHER SERVICE SIOUX FALLS SD
200 PM CST SAT JAN 21 2017

NOTE: "FAIR" INDICATES FEW OR NO CLOUDS BELOW 12,000 FEET WITH NO
SIGNIFICANT WEATHER AND/OR OBSTRUCTIONS TO VISIBILITY.


SDZ001>005-009-010-012>017-212100-
NORTHWEST AND NORTH CENTRAL SOUTH DAKOTA

CITY           SKY/WX    TMP DP  RH WIND       PRES   REMARKS
BUFFALO          N/A     36  28  73 W9        29.33R
FAITH            N/A     34  30  85 NW13      29.38R WCI  25
MOBRIDGE       CLOUDY    29  25  85 NW8       29.36R WCI  21
$$

SDZ012>016-024>037-041>051-057-063-072>074-212100-
SOUTHWEST AND SOUTH CENTRAL SOUTH DAKOTA

CITY           SKY/WX    TMP DP  RH WIND       PRES   REMARKS
RAPID CTY ARPT SUNNY     40  31  70 S5        29.40S
PIERRE         PTSUNNY   29  26  89 NW6       29.38R WCI  23
CUSTER         SUNNY     37  23  56 CALM      29.35F
ELLSWORTH AFB  SUNNY     41  32  70 N8        29.39S
PHILIP         SUNNY     40  33  76 W8        29.40S
PINE RIDGE     SUNNY     34  29  82 SW3       29.42S
SPEARFISH      FAIR      39  28  65 NW7       29.40S
WINNER         FAIR      46  33  60 W12       29.39S
$$

SDZ004>011-016>023-039-040-212100-
NORTHEAST SOUTH DAKOTA

CITY           SKY/WX    TMP DP  RH WIND       PRES   REMARKS
ABERDEEN       CLOUDY    32  26  78 SW6       29.38S WCI  26
WATERTOWN      FOG       33  33 100 W8        29.35R VSB 3/4 WCI  26
BROOKINGS      CLOUDY    32  31  96 W9        29.35S FOG     WCI  24
SISSETON         N/A     35  35 100 S7        29.37S WCI  29
$$

SDZ017-020-022-023-036>040-048>070-212100-
SOUTHEAST SOUTH DAKOTA

CITY           SKY/WX    TMP DP  RH WIND       PRES   REMARKS
SIOUX FALLS    CLOUDY    31  29  92 W8        29.39R WCI  23
HURON          CLOUDY    31  28  89 NW8       29.39S WCI  23
CHAMBERLAIN    PTSUNNY   36  32  85 W8        29.40R
MITCHELL       CLOUDY    33  29  85 W12       29.40S WCI  24
YANKTON        CLOUDY    36  28  75 NW9       29.40S
$$

ABBREVIATIONS USED IN REMARKS
   TC - TEMPERATURE IN CELSIUS
  WCI - WIND CHILL INDEX
   HX - HEAT INDEX
  VSB - VISIBILITY





USA.gov is the U.S. government's official web portal to all federal, state and local government web resources and services.